ONEWEB-0651, 56080

Orbit data source: Space-Track

ONEWEB-0651, 56080 is a payload satellite owned by One Web (NAA) (UK) in LEO that was launched on Sun, 26 Mar 2023 UTC via a LVM3 launch vehicle from the Sirharikota (SRI). Payloads include a variety of satellites, spacecraft, and rockets equipped with specific instruments for various scientific and technological missions. These include communications satellites like Starlink; space stations such as the ISS; scientific satellites like the Hubble; Earth observation satellites from companies like Planet Labs, Umbra, and HawkEye 360; GPS; miniature CubeSats for education and research; and military/defense satellites.

Loading next visibility...
ONEWEB-0651 details
Identifier
56080, 2023-043AL
Orbit
LEO
Last TLE update16 hours ago
Origin
Flag of UKOne Web (NAA) (UK)
ManufacturerOne Web
MissionOperational Commercial Communications
Bus & MotorARROW, Unknown motor
Mass148 kg wet, ~140 kg dry
Launch date (UTC)
2023-03-26 (2 years ago)
Launch vehicle
LVM3
Launch site
Sirharikota (SRI)
Object type
Payload
Rocket body
Debris
Shape & HBRTrap Box + 2 Pan, 5 m
Radar Cross Section2.032 m², Medium (>0.1 m² and < 1m²)

Expand to show TLE details & history

TLE from 16 hours ago
0 ONEWEB-0651
1 56080U 23043AL  25014.94179419  .00000150  00000-0  36466-3 0  9991
2 56080  87.9080   2.4043 0001741  75.3315 284.8008 13.15547128 89489
Epoch: 2025-01-14T22:36Z
Definitive object data (Epoch: 2025-01-14T22:36:11.018Z)
Latitude-0.00002°
Longitude-91.28287°
Altitude1,204.335 km
Speed7.252 km/s
True Right ascension00h 09m 37s
True Declination0° 00' 00"
Sunlit
Object was in daylight at TLE epoch
Visualization TLE readout
Latitude9.75194°
Longitude-91.06126°
Altitude1,203.352 km
Speed7.253 km/s
Apparent Right ascension01h 33m 58s
Apparent Declination-14° 08' 03"
Sunlit
Object is in daylight
Visualization observer readout
Local Sidereal Time15:45:38
Azimuth57.549° ENE
Elevation-51.358°
Doppler factor1
Orbital elements
Apogee altitude1,200.207 km
Perigee altitude1,197.569 km
Semi-major axis7,577.025 km
Eccentricity0.0001741
Inclination87.908°
RAAN2.4043°
Arg. of periapsis75.3315°
True anomaly284.78151°
Mean anomaly284.8008°
Eccentric anomaly284.79116°
Mean motion3.29075 °/min
BSTAR0.00036466
Orbital period109.4 mins
Loading maneuver chart data...
Loading historical data...
Loading historical data...
Loading historical data...
Loading historical data...
Loading historical data...
Loading historical data...
Loading historical data...

ONEWEB-0651 Visibility forecast

Observer location: undefined°, undefined

Span
Click to sort rows by Start time (UTC) header in descending order
Start Az.
Max El. time (UTC)
Max El. Az.
Max El.
End time (UTC)
End Az.
11 mins2025-01-15 22:26:50.316Z137.395° SSE2025-01-15 22:32:50.316Z73.095° E29.085°2025-01-15 22:37:50.316Z22.669° NE
11 mins2025-01-16 00:16:50.316Z215.48° SW2025-01-16 00:21:50.316Z278.397° WNW33.919°2025-01-16 00:27:50.316Z344.257° N
10 mins2025-01-16 09:54:50.316Z32.361° NE2025-01-16 09:58:50.316Z73.004° E23.652°2025-01-16 10:04:50.316Z130.811° SE
12 mins2025-01-16 11:43:50.316Z345.945° N2025-01-16 11:48:50.316Z283.588° WNW39.256°2025-01-16 11:55:50.316Z201.294° SSW
|